When you browse on this site, cookies collect data to enhance your experience and personalize the content and advertising you see.
Visit our Privacy Policy to learn more. By continuing to use the site, you agree to this use of cookies and data.
  • Em Portugal
  • Lista de países
  • Para 7 dias
  • Temperatura da água
  • Mapas de satélite
  • Mapa do tempo
  • Widgets de tempo
  • user-avatar
    Iniciar Sessão

    Previsão horária em Linz

    Hoje, 23 Maio, Quinta-feira

    Tempo Temperatura Precipitação Vento Pressão Humidade
    00:00 +11°C° 0.1 mm 3 m/s 735 mmHg 94%
    01:00 +10°C° 0.1 mm 3 m/s 735 mmHg 95%
    02:00 +10°C° 0 mm 3 m/s 735 mmHg 96%
    03:00 +9°C° 0 mm 2 m/s 735 mmHg 96%
    04:00 +8°C° 0 mm 2 m/s 735 mmHg 97%
    05:00 +9°C° 0 mm 2 m/s 735 mmHg 94%
    06:00 +10°C° 0 mm 3 m/s 735 mmHg 92%
    07:00 +11°C° 0 mm 3 m/s 735 mmHg 89%
    08:00 +13°C° 0 mm 3 m/s 735 mmHg 81%
    09:00 +14°C° 0 mm 3 m/s 735 mmHg 73%
    10:00 +16°C° 0 mm 3 m/s 735 mmHg 66%
    11:00 +17°C° 0 mm 3 m/s 735 mmHg 61%
    12:00 +18°C° 0 mm 3 m/s 735 mmHg 56%
    13:00 +19°C° 0 mm 3 m/s 735 mmHg 52%
    14:00 +20°C° 0 mm 3 m/s 734 mmHg 52%
    15:00 +20°C° 0 mm 3 m/s 734 mmHg 52%
    16:00 +20°C° 0 mm 2 m/s 734 mmHg 51%
    17:00 +19°C° 0 mm 2 m/s 734 mmHg 58%
    18:00 +17°C° 0 mm 2 m/s 734 mmHg 65%
    19:00 +16°C° 0 mm 1 m/s 734 mmHg 72%
    20:00 +15°C° 0 mm 1 m/s 734 mmHg 74%
    21:00 +14°C° 0 mm 1 m/s 734 mmHg 76%
    22:00 +12°C° 0 mm 1 m/s 735 mmHg 78%
    23:00 +12°C° 0 mm 1 m/s 735 mmHg 80%

    Amanhã, 24 Maio, Sexta-feira

    Tempo Temperatura Precipitação Vento Pressão Humidade
    00:00 +11°C° 0 mm 1 m/s 735 mmHg 82%
    01:00 +10°C° 0 mm 1 m/s 734 mmHg 83%
    02:00 +10°C° 0 mm 1 m/s 734 mmHg 84%
    03:00 +9°C° 0 mm 1 m/s 734 mmHg 85%
    04:00 +9°C° 0 mm 1 m/s 734 mmHg 86%
    05:00 +10°C° 0 mm 0 m/s 734 mmHg 82%
    06:00 +11°C° 0 mm 0 m/s 733 mmHg 77%
    07:00 +13°C° 0 mm 0 m/s 733 mmHg 72%
    08:00 +15°C° 0 mm 0 m/s 733 mmHg 67%
    09:00 +17°C° 0 mm 0 m/s 733 mmHg 63%
    10:00 +20°C° 0 mm 1 m/s 733 mmHg 58%
    11:00 +21°C° 0 mm 1 m/s 733 mmHg 55%
    12:00 +22°C° 0 mm 1 m/s 732 mmHg 52%
    13:00 +23°C° 0 mm 1 m/s 732 mmHg 49%
    14:00 +23°C° 0 mm 1 m/s 732 mmHg 48%
    15:00 +23°C° 0 mm 1 m/s 731 mmHg 47%
    16:00 +23°C° 0 mm 1 m/s 731 mmHg 47%
    17:00 +22°C° 0 mm 1 m/s 731 mmHg 53%
    18:00 +18°C° 0 mm 0 m/s 731 mmHg 59%
    19:00 +16°C° 0 mm 0 m/s 731 mmHg 65%
    20:00 +16°C° 0 mm 1 m/s 731 mmHg 67%
    21:00 +14°C° 0 mm 1 m/s 731 mmHg 70%
    22:00 +13°C° 0 mm 1 m/s 732 mmHg 72%
    23:00 +12°C° 0 mm 1 m/s 732 mmHg 74%

    Depois de amanhã, 25 Maio, Sábado

    Tempo Temperatura Precipitação Vento Pressão Humidade
    00:00 +12°C° 0 mm 1 m/s 732 mmHg 76%
    01:00 +11°C° 0 mm 1 m/s 732 mmHg 78%
    02:00 +11°C° 0 mm 1 m/s 731 mmHg 79%
    03:00 +9°C° 0 mm 0 m/s 731 mmHg 80%
    04:00 +9°C° 0 mm 0 m/s 731 mmHg 82%
    05:00 +11°C° 0 mm 0 m/s 731 mmHg 77%
    06:00 +13°C° 0 mm 0 m/s 731 mmHg 73%
    07:00 +14°C° 0 mm 0 m/s 732 mmHg 69%
    08:00 +16°C° 0 mm 0 m/s 732 mmHg 65%
    09:00 +18°C° 0 mm 0 m/s 732 mmHg 60%
    10:00 +22°C° 0 mm 1 m/s 732 mmHg 56%
    11:00 +22°C° 0 mm 1 m/s 732 mmHg 55%
    12:00 +23°C° 0 mm 1 m/s 732 mmHg 53%
    13:00 +24°C° 0 mm 1 m/s 731 mmHg 52%
    14:00 +24°C° 0 mm 1 m/s 731 mmHg 53%
    15:00 +24°C° 0 mm 1 m/s 731 mmHg 53%
    16:00 +24°C° 0 mm 1 m/s 731 mmHg 54%
    17:00 +23°C° 0 mm 1 m/s 731 mmHg 61%
    18:00 +21°C° 0 mm 1 m/s 731 mmHg 69%
    19:00 +20°C° 0 mm 1 m/s 731 mmHg 76%
    20:00 +18°C° 0 mm 1 m/s 731 mmHg 80%
    21:00 +16°C° 0 mm 1 m/s 732 mmHg 84%
    22:00 +14°C° 0 mm 1 m/s 732 mmHg 87%
    23:00 +14°C° 0 mm 1 m/s 732 mmHg 89%

    26 Maio, Domingo

    Tempo Temperatura Precipitação Vento Pressão Humidade
    00:00 +13°C° 0 mm 1 m/s 732 mmHg 90%
    01:00 +13°C° 0 mm 1 m/s 732 mmHg 91%
    02:00 +13°C° 0 mm 1 m/s 732 mmHg 92%
    03:00 +12°C° 0 mm 1 m/s 732 mmHg 93%
    04:00 +12°C° 0 mm 1 m/s 732 mmHg 94%
    05:00 +13°C° 0 mm 1 m/s 732 mmHg 91%
    06:00 +15°C° 0 mm 2 m/s 732 mmHg 88%
    07:00 +16°C° 0 mm 2 m/s 732 mmHg 85%
    08:00 +17°C° 0.1 mm 2 m/s 732 mmHg 81%
    09:00 +18°C° 0.1 mm 3 m/s 732 mmHg 78%
    10:00 +19°C° 0.1 mm 3 m/s 732 mmHg 74%
    11:00 +20°C° 0 mm 4 m/s 732 mmHg 69%
    12:00 +21°C° 0 mm 4 m/s 732 mmHg 63%
    13:00 +22°C° 0 mm 5 m/s 732 mmHg 57%
    14:00 +22°C° 0 mm 4 m/s 732 mmHg 58%
    15:00 +22°C° 0 mm 4 m/s 732 mmHg 58%
    16:00 +22°C° 0 mm 4 m/s 732 mmHg 58%
    17:00 +20°C° 0 mm 3 m/s 732 mmHg 64%
    18:00 +19°C° 0 mm 2 m/s 732 mmHg 70%
    19:00 +18°C° 0 mm 2 m/s 732 mmHg 77%
    20:00 +16°C° 0 mm 1 m/s 732 mmHg 80%
    21:00 +15°C° 0 mm 1 m/s 732 mmHg 83%
    22:00 +13°C° 0 mm 1 m/s 733 mmHg 86%
    23:00 +13°C° 0 mm 1 m/s 732 mmHg 87%

    27 Maio, Segunda-feira

    Tempo Temperatura Precipitação Vento Pressão Humidade
    00:00 +12°C° 0 mm 1 m/s 732 mmHg 89%
    01:00 +11°C° 0 mm 0 m/s 732 mmHg 90%
    02:00 +11°C° 0 mm 1 m/s 732 mmHg 91%
    03:00 +11°C° 0 mm 1 m/s 731 mmHg 91%
    04:00 +11°C° 0 mm 1 m/s 731 mmHg 92%
    05:00 +13°C° 0 mm 1 m/s 731 mmHg 87%
    06:00 +14°C° 0 mm 1 m/s 731 mmHg 82%
    07:00 +16°C° 0 mm 1 m/s 731 mmHg 78%
    08:00 +18°C° 0 mm 1 m/s 730 mmHg 72%
    09:00 +20°C° 0 mm 1 m/s 730 mmHg 67%
    10:00 +22°C° 0 mm 1 m/s 730 mmHg 61%
    11:00 +22°C° 0.1 mm 1 m/s 730 mmHg 64%
    12:00 +21°C° 0.1 mm 2 m/s 729 mmHg 67%
    13:00 +21°C° 0.1 mm 2 m/s 729 mmHg 69%
    14:00 +21°C° 0.2 mm 2 m/s 728 mmHg 72%
    15:00 +20°C° 0.2 mm 2 m/s 728 mmHg 74%
    16:00 +20°C° 0.2 mm 2 m/s 727 mmHg 77%
    17:00 +20°C° 0.2 mm 1 m/s 727 mmHg 80%
    18:00 +19°C° 0.2 mm 1 m/s 727 mmHg 84%
    19:00 +16°C° 0.2 mm 0 m/s 727 mmHg 88%
    20:00 +18°C° 0.4 mm 1 m/s 727 mmHg 90%
    21:00 +16°C° 0.4 mm 1 m/s 726 mmHg 92%
    22:00 +15°C° 0.4 mm 1 m/s 726 mmHg 94%
    23:00 +15°C° 0.8 mm 1 m/s 726 mmHg 94%

    28 Maio, Terça-feira

    Tempo Temperatura Precipitação Vento Pressão Humidade
    00:00 +15°C° 0.8 mm 1 m/s 726 mmHg 95%
    01:00 +15°C° 0.8 mm 2 m/s 726 mmHg 95%
    02:00 +14°C° 0.4 mm 2 m/s 726 mmHg 95%
    03:00 +14°C° 0.4 mm 1 m/s 725 mmHg 95%
    04:00 +13°C° 0.4 mm 1 m/s 725 mmHg 95%
    05:00 +14°C° 0.3 mm 1 m/s 725 mmHg 95%
    06:00 +14°C° 0.3 mm 1 m/s 725 mmHg 95%
    07:00 +14°C° 0.3 mm 1 m/s 725 mmHg 95%
    08:00 +15°C° 0.7 mm 2 m/s 726 mmHg 94%
    09:00 +14°C° 0.7 mm 3 m/s 726 mmHg 93%
    10:00 +14°C° 0.7 mm 4 m/s 726 mmHg 92%
    11:00 +14°C° 1 mm 4 m/s 726 mmHg 92%
    12:00 +13°C° 1 mm 4 m/s 726 mmHg 93%
    13:00 +12°C° 1 mm 4 m/s 726 mmHg 93%
    14:00 +12°C° 0.3 mm 4 m/s 726 mmHg 91%
    15:00 +13°C° 0.3 mm 4 m/s 727 mmHg 90%
    16:00 +13°C° 0.3 mm 3 m/s 727 mmHg 89%
    17:00 +13°C° 0.3 mm 3 m/s 727 mmHg 90%
    18:00 +12°C° 0.3 mm 3 m/s 728 mmHg 92%
    19:00 +13°C° 0.3 mm 2 m/s 728 mmHg 94%
    20:00 +12°C° 0.3 mm 2 m/s 729 mmHg 95%
    21:00 +12°C° 0.3 mm 2 m/s 729 mmHg 96%
    22:00 +10°C° 0.3 mm 2 m/s 729 mmHg 96%
    23:00 +10°C° 0.4 mm 2 m/s 729 mmHg 96%
    Mostrar mais